Regional Weather Roundup
Issued by NWS

Home | Current Version | Previous Version | Graphics & Text | Print | Product List | Glossary On
Versions: 1 2 3 4 5 6 7 8 9 10 11 12 13 14 15 16 17 18 19 20 21 22 23 24 25 26 27 28 29 30 31 32 33 34 35 36 37 38 39 40 41 42 43 44 45 46 47 48 49 50
000
ASUS43 KLMK 231410
RWRKY
KENTUCKY REGIONAL WEATHER ROUNDUP
NATIONAL WEATHER SERVICE LOUISVILLE KY
1000 AM EDT WED JUL 23 2014

NOTE "FAIR" INDICATES FEW OR NO CLOUDS BELOW 12,000 FEET
WITH NO SIGNIFICANT WEATHER AND/OR OBSTRUCTIONS TO VISIBILITY.

KYZ001>023-026-027-061>063-070>075-231500-
WESTERN AND SOUTH CENTRAL KENTUCKY

CITY           SKY/WX    TMP DP  RH WIND       PRES   REMARKS
PADUCAH        PTSUNNY   80  72  76 MISG      30.04F
HENDERSON      CLOUDY    73  66  78 SW8       30.06F
OWENSBORO      PTSUNNY   76  72  87 S8        30.06F
HOPKINSVILLE   SUNNY     80  75  85 CALM      30.09R
BOWLING GREEN  PTSUNNY   82  72  71 W3        30.09R
GLASGOW        MOSUNNY   79  71  77 CALM      30.09F
$$

KYZ024-025-028>034-038-045-046-053-231500-
NORTH CENTRAL KENTUCKY

CITY           SKY/WX    TMP DP  RH WIND       PRES   REMARKS
LOUISVILLE/SDF PTSUNNY   83  71  67 CALM      30.07S
LOUISVILLE/LOU PTSUNNY   82  71  69 CALM      30.07F
FORT KNOX      MOSUNNY   79  73  83 W3        30.08R
$$

KYZ035>037-039>044-047>052-055>060-089>105-231500-
NORTHEAST KENTUCKY

CITY           SKY/WX    TMP DP  RH WIND       PRES   REMARKS
LEXINGTON      PTSUNNY   80  73  79 N5        30.11R HAZE
COVINGTON      LGT RAIN  72  67  84 SE6       30.04F
FRANKFORT      CLOUDY    79  72  79 NE5       30.09R
$$

KYZ054-064>069-076>088-106>120-231500-
SOUTHEAST KENTUCKY

CITY           SKY/WX    TMP DP  RH WIND       PRES   REMARKS
JACKSON        MOSUNNY   79  71  76 NW6       30.12R
LONDON         SUNNY     80  71  74 SW3       30.12S
SOMERSET       SUNNY     79  73  83 W6        30.12R
MIDDLESBORO    CLOUDY    72  70  93 CALM      30.14S
MONTICELLO     SUNNY     83  74  74 VRB5      30.12S
$$



USA.gov is the U.S. government's official web portal to all federal, state and local government web resources and services.